{"data":{"norad_id":63098,"epoch":"2026-05-25T03:06:52.186752Z","epoch_age_seconds":63995,"freshness":"FRESH","line1":"1 63098U 25037X   26145.12977068 -.00005965  00000+0 -49242-3 0  9991","line2":"2 63098  70.0002 161.6503 0004240 269.8906  90.1767 14.98338081 70067","mean_motion":14.98338081,"eccentricity":0.000424,"inclination_deg":70.0002,"raan_deg":161.6503,"arg_perigee_deg":269.8906,"mean_anomaly_deg":90.1767,"bstar":-0.00049242,"rev_number":7006,"period_min":96.106480790966,"perigee_km":569.08403004071,"apogee_km":574.97777242096,"semimajor_km":6950.1679012308,"source":"CELESTRAK","updated_at":"2026-05-25T13:38:19.881614Z"}}